Showing default

SJ-16, 39358

Orbit data source: Space-Track

SJ-16, 39358 is a payload satellite owned by CNMSC (CN) in LEO that was launched on Fri, 25 Oct 2013 UTC via a CHANG ZHENG 4B launch vehicle from the Jiuquan Satellite Launch Center, China (JSC). Payload-class satellites include a variety of spacecraft equipped with specific instruments for various scientific and technological missions. These include communications satellites like Starlink; space stations such as the ISS; scientific satellites like the Hubble; Earth observation satellites from companies like Planet Labs, Umbra, and HawkEye 360; GPS; miniature CubeSats for education and research; and military/defense satellites.

Loading next visibility...
Identifier
39358, 2013-057A
Orbit
LEO
Country
Flag of CNCN / PRC
Related business
Manufacturer
SISE
Mission
Operational Defense Technology
Bus & Motor
SJ-16, Unknown motor
Mass
~2,000 kg wet, ~2,000 kg dry
Launch date (UTC)
2013-10-25 (12 years ago)
Launch vehicle
CHANG ZHENG 4B
Launch site
Jiuquan Satellite Launch Center, China (JSC)
Object type
Payload
Rocket body
Debris
Shape & HBR
Box + 2 Pan, 5.0 m
Radar Cross Section
14.304 m², Large (>1 m²)

Expand to show TLE details & history
Last TLE update: 7 hours ago

TLE from 7 hours ago
0 SJ-16
1 39358U 13057A   25261.22903382  .00001670  00000-0  16896-3 0  9996
2 39358  74.9721 151.3950 0016978 174.9558 185.1804 14.91570730645788
Epoch: 2025-09-18T05:29Z
TLE epoch observation values (Epoch: 2025-09-18T05:29:48.522Z)
Latitude
-0.00002°
Longitude
71.54919°
Altitude
607.558 km
Speed
7.549 km/s
True Right ascension
10h 05m 34s
True Declination
0° 00' 00"
Sunlit
Object was in daylight at epoch
Visualization orbit readout
Latitude
Unknown
Longitude
Unknown
Altitude
Unknown
Speed
Unknown
Apparent Right ascension
Unknown
Apparent Declination
Unknown
Sunlit
N/A
Visualization observer readout
Local Sidereal Time
04:59:34
Azimuth
Unknown
Elevation
Unknown
Doppler factor
Unknown
Orbital elements
Apogee altitude
602.352 km
Perigee altitude
578.689 km
Semi-major axis
6,968.658 km
Eccentricity
0.0017
Inclination
74.9721°
RAAN
151.395°
Arg. of periapsis
174.9558°
True anomaly
185.16287°
Mean anomaly
185.1804°
Eccentric anomaly
185.17163°
Mean motion
3.73095 °/min
Orbital period
96.49 mins
BSTAR
0.00016896
Loading maneuver chart data...
Computing Atmospheric mass density...
Loading historical data...
Loading historical data...
Loading historical data...
Loading historical data...
Loading historical data...
Loading historical data...
Loading historical data...
Other satellites on launch #57 in the year 2013 (2013-10-25 UTC)

Documentation

Showing up to 5 results
|